Location: Newark
(22.3060°N, 114.2134°E)
Time: 03:50:29
(UTC+00:00)

Tiros 1 - All Passes

Search period start: 26 July 2021 00:00
Search period end: 05 August 2021 00:00
Orbit: 630 x 663 km, 48.4° (Epoch: 25 July)

Date Brightness Start Highest point End Pass type
(mag) Time Alt. Az. Time Alt. Az. Time Alt. Az.
26 Jul - 10:38:42 10° SSW 10:43:26 65° SE 10:48:09 10° NE daylight
26 Jul - 12:22:50 10° WNW 12:25:53 17° NW 12:28:55 10° N visible
26 Jul - 19:18:14 10° NNW 19:22:36 40° NE 19:26:55 10° ESE visible
26 Jul - 21:01:09 10° W 21:04:31 20° SW 21:07:54 10° S visible
27 Jul - 09:24:00 10° S 09:27:27 20° SE 09:30:52 10° E daylight
27 Jul - 11:04:49 10° WSW 11:09:23 44° NW 11:13:55 10° NNE daylight
27 Jul - 18:03:22 10° N 18:06:04 15° NE 18:08:45 10° ENE night (unlit)
27 Jul - 19:43:57 10° NW 19:48:32 70° SW 19:53:07 10° SE visible
28 Jul - 09:48:29 10° SSW 09:53:11 58° SE 09:57:51 10° NE daylight
28 Jul - 11:32:17 10° W 11:35:34 18° NW 11:38:51 10° N visible
28 Jul - 18:28:03 10° NNW 18:32:20 36° NE 18:36:34 10° ESE night (unlit)
28 Jul - 20:10:41 10° WNW 20:14:18 23° SW 20:17:54 10° S night (unlit)
29 Jul - 08:34:03 10° SSE 08:37:12 17° SE 08:40:21 10° E daylight
29 Jul - 10:14:27 10° WSW 10:19:06 49° NW 10:23:43 10° NNE daylight
29 Jul - 17:13:21 10° N 17:15:46 14° NE 17:18:09 10° ENE night (unlit)
29 Jul - 18:53:40 10° NW 18:58:19 79° SW 19:02:54 10° SE night (unlit)
30 Jul - 08:58:17 10° SSW 09:02:56 51° SE 09:07:33 10° NE daylight
30 Jul - 10:41:45 10° W 10:45:15 20° NW 10:48:46 10° N daylight
30 Jul - 17:37:52 10° NNW 17:42:03 32° NE 17:46:12 10° ESE night (unlit)
30 Jul - 19:20:16 10° WNW 19:24:04 25° SW 19:27:53 10° S night (unlit)
31 Jul - 07:44:08 10° SSE 07:46:58 16° SE 07:49:46 10° E daylight
31 Jul - 09:24:07 10° WSW 09:28:49 55° NW 09:33:30 10° NE daylight
31 Jul - 16:23:23 10° N 16:25:27 13° NNE 16:27:30 10° ENE night (unlit)
31 Jul - 18:03:24 10° NW 18:08:04 88° SW 18:12:40 10° SE night (unlit)
01 Aug - 08:08:06 10° SSW 08:12:40 45° SE 08:17:14 10° ENE daylight
01 Aug - 09:51:14 10° W 09:54:57 22° NW 09:58:39 10° NNE daylight
01 Aug - 16:47:42 10° NNW 16:51:47 29° NE 16:55:49 10° ESE night (unlit)
01 Aug - 18:29:51 10° WNW 18:33:51 29° SW 18:37:49 10° S night (unlit)
02 Aug - 06:54:19 10° SSE 06:56:43 14° SE 06:59:07 10° E daylight
02 Aug - 08:33:48 10° SW 08:38:33 62° NW 08:43:17 10° NE daylight
02 Aug - 15:33:28 10° NNE 15:35:08 12° NNE 15:36:47 10° NE visible
02 Aug - 17:13:09 10° NW 17:17:49 82° NE 17:22:26 10° SE night (unlit)
03 Aug - 07:17:56 10° SSW 07:22:25 40° SE 07:26:53 10° ENE daylight
03 Aug - 09:00:46 10° W 09:04:39 24° NW 09:08:31 10° NNE daylight
03 Aug - 15:57:32 10° NNW 16:01:30 27° NE 16:05:25 10° E night (unlit)
03 Aug - 17:39:28 10° WNW 17:43:37 32° SW 17:47:44 10° SSE night (unlit)
04 Aug - 06:04:38 10° SSE 06:06:29 12° SE 06:08:19 10° ESE daylight
04 Aug - 07:43:29 10° SW 07:48:16 70° NW 07:53:03 10° NE daylight
04 Aug - 09:29:57 10° NW 09:31:03 11° NNW 09:32:09 10° NNW daylight
04 Aug - 14:43:44 10° NNE 14:44:48 11° NNE 14:45:52 10° NE visible
04 Aug - 16:22:54 10° NW 16:27:34 73° NE 16:32:10 10° SE night (unlit)
04 Aug - 18:08:22 10° WSW 18:09:17 11° SW 18:10:13 10° SW night (unlit)
